Time,TemperatureF,DewpointF,PressureIn,WindDirection,WindDirectionDegrees,WindSpeedMPH,WindSpeedGustMPH,Humidity,HourlyPrecipIn,Conditions,Clouds,dailyrainin,SoftwareType,DateUTC
2013-03-24 00:00:00,27.0,24.5,30.28,ENE,67,2.0,12.0,90,0.00,,,-99.99,Weather View 32 v60,2013-03-24 05:00:00,
2013-03-24 00:15:00,27.0,24.5,30.28,NNE,22,1.0,11.0,90,0.00,,,-99.99,Weather View 32 v60,2013-03-24 05:15:00,
2013-03-24 00:30:00,27.0,24.5,30.28,NE,45,4.0,15.0,90,0.00,,,-99.99,Weather View 32 v60,2013-03-24 05:30:00,
2013-03-24 00:41:00,27.0,24.5,30.28,NE,45,4.0,15.0,90,0.00,,,-99.99,Weather View 32 v60,2013-03-24 05:41:00,
2013-03-24 01:00:00,27.0,23.6,30.28,ENE,67,10.0,15.0,87,0.00,,,-99.99,Weather View 32 v60,2013-03-24 06:00:00,
2013-03-24 01:15:00,27.0,23.9,30.28,NE,45,0.0,15.0,88,0.00,,,-99.99,Weather View 32 v60,2013-03-24 06:15:00,
2013-03-24 01:30:00,27.0,23.9,30.28,ENE,67,1.0,13.0,88,0.00,,,-99.99,Weather View 32 v60,2013-03-24 06:30:00,
2013-03-24 01:42:00,27.0,23.9,30.28,ENE,67,1.0,13.0,88,0.00,,,-99.99,Weather View 32 v60,2013-03-24 06:42:00,
2013-03-24 02:00:00,27.0,24.5,30.28,NNW,337,8.0,13.0,90,0.00,,,-99.99,Weather View 32 v60,2013-03-24 07:00:00,
2013-03-24 02:15:00,26.0,23.7,30.28,NNE,22,0.0,10.0,91,0.00,,,-99.99,Weather View 32 v60,2013-03-24 07:15:00,
2013-03-24 02:30:00,26.0,23.7,30.28,NNE,22,1.0,10.0,91,0.00,,,-99.99,Weather View 32 v60,2013-03-24 07:30:00,
2013-03-24 02:43:00,26.0,23.7,30.28,NNE,22,1.0,10.0,91,0.00,,,-99.99,Weather View 32 v60,2013-03-24 07:43:00,
2013-03-24 03:00:00,26.0,23.7,30.28,North,360,2.0,12.0,91,0.00,,,-99.99,Weather View 32 v60,2013-03-24 08:00:00,
2013-03-24 03:15:00,26.0,23.7,30.28,NNE,22,0.0,12.0,91,0.00,,,-99.99,Weather View 32 v60,2013-03-24 08:15:00,
2013-03-24 03:30:00,26.0,23.7,30.27,NE,45,0.0,12.0,91,0.00,,,-99.99,Weather View 32 v60,2013-03-24 08:30:00,
2013-03-24 03:43:00,26.0,23.7,30.27,NE,45,0.0,12.0,91,0.00,,,-99.99,Weather View 32 v60,2013-03-24 08:43:00,
2013-03-24 04:00:00,26.0,23.5,30.26,NNE,22,1.0,14.0,90,0.00,,,-99.99,Weather View 32 v60,2013-03-24 09:00:00,
2013-03-24 04:15:00,26.0,23.2,30.25,North,360,2.0,14.0,89,0.00,,,-99.99,Weather View 32 v60,2013-03-24 09:15:00,
2013-03-24 04:30:00,26.0,23.2,30.25,NNE,22,6.0,14.0,89,0.00,,,-99.99,Weather View 32 v60,2013-03-24 09:30:00,
2013-03-24 04:44:00,26.0,23.2,30.25,NNE,22,6.0,14.0,89,0.00,,,-99.99,Weather View 32 v60,2013-03-24 09:44:00,
2013-03-24 05:00:00,26.0,22.9,30.25,NE,45,0.0,16.0,88,0.00,,,-99.99,Weather View 32 v60,2013-03-24 10:00:00,
2013-03-24 05:15:00,26.0,22.9,30.24,North,360,0.0,16.0,88,0.00,,,-99.99,Weather View 32 v60,2013-03-24 10:15:00,
2013-03-24 05:30:00,26.0,22.7,30.24,North,360,2.0,16.0,87,0.00,,,-99.99,Weather View 32 v60,2013-03-24 10:30:00,
2013-03-24 05:44:00,26.0,22.7,30.24,North,360,2.0,16.0,87,0.00,,,-99.99,Weather View 32 v60,2013-03-24 10:44:00,
2013-03-24 06:00:00,26.0,22.4,30.24,NNE,22,1.0,17.0,86,0.00,,,-99.99,Weather View 32 v60,2013-03-24 11:00:00,
2013-03-24 06:15:00,26.0,22.7,30.24,North,360,0.0,17.0,87,0.00,,,-99.99,Weather View 32 v60,2013-03-24 11:15:00,
2013-03-24 06:30:00,25.0,22.7,30.25,NW,315,6.0,17.0,91,0.00,,,-99.99,Weather View 32 v60,2013-03-24 11:30:00,
2013-03-24 06:45:00,25.0,22.7,30.25,NNW,337,0.0,17.0,91,0.00,,,-99.99,Weather View 32 v60,2013-03-24 11:45:00,
2013-03-24 07:00:00,25.0,22.7,30.25,NNW,337,2.0,17.0,91,0.00,,,-99.99,Weather View 32 v60,2013-03-24 12:00:00,
2013-03-24 07:15:00,25.0,22.7,30.25,NNW,337,1.0,16.0,91,0.00,,,-99.99,Weather View 32 v60,2013-03-24 12:15:00,
2013-03-24 07:30:00,24.0,21.8,30.25,North,360,5.0,16.0,91,0.00,,,-99.99,Weather View 32 v60,2013-03-24 12:30:00,
2013-03-24 07:45:00,24.0,21.8,30.26,North,360,1.0,15.0,91,0.00,,,-99.99,Weather View 32 v60,2013-03-24 12:45:00,
2013-03-24 08:00:00,24.0,21.8,30.25,NNE,22,3.0,17.0,91,0.00,,,-99.99,Weather View 32 v60,2013-03-24 13:00:00,
2013-03-24 08:15:00,24.0,21.8,30.25,North,360,6.0,17.0,91,0.00,,,-99.99,Weather View 32 v60,2013-03-24 13:15:00,
2013-03-24 08:30:00,24.0,21.8,30.25,North,360,7.0,17.0,91,0.00,,,-99.99,Weather View 32 v60,2013-03-24 13:30:00,
2013-03-24 08:45:00,24.0,21.8,30.25,North,360,0.0,19.0,91,0.00,,,-99.99,Weather View 32 v60,2013-03-24 13:45:00,
2013-03-24 09:00:00,24.0,22.0,30.25,NNE,22,1.0,19.0,92,0.00,,,-99.99,Weather View 32 v60,2013-03-24 14:00:00,
2013-03-24 09:15:00,23.0,21.3,30.25,ENE,67,3.0,19.0,93,0.00,,,-99.99,Weather View 32 v60,2013-03-24 14:15:00,
2013-03-24 09:30:00,23.0,21.3,30.25,NNW,337,8.0,19.0,93,0.00,,,-99.99,Weather View 32 v60,2013-03-24 14:30:00,
2013-03-24 09:45:00,23.0,21.0,30.25,West,270,0.0,22.0,92,0.00,,,-99.99,Weather View 32 v60,2013-03-24 14:45:00,
2013-03-24 10:00:00,24.0,20.1,30.25,North,360,12.0,22.0,85,0.00,,,-99.99,Weather View 32 v60,2013-03-24 15:00:00,
2013-03-24 10:15:00,24.0,19.6,30.25,NNW,337,3.0,22.0,83,0.00,,,-99.99,Weather View 32 v60,2013-03-24 15:15:00,
2013-03-24 10:30:00,24.0,19.6,30.26,NNW,337,0.0,22.0,83,0.00,,,-99.99,Weather View 32 v60,2013-03-24 15:30:00,
2013-03-24 10:45:00,25.0,19.4,30.25,NNE,22,1.0,22.0,79,0.00,,,-99.99,Weather View 32 v60,2013-03-24 15:45:00,
2013-03-24 11:00:00,24.0,18.4,30.24,NW,315,8.0,21.0,79,0.00,,,-99.99,Weather View 32 v60,2013-03-24 16:00:00,
2013-03-24 11:15:00,25.0,20.0,30.25,NNW,337,7.0,21.0,81,0.00,,,-99.99,Weather View 32 v60,2013-03-24 16:15:00,
2013-03-24 11:30:00,24.0,19.0,30.24,North,360,9.0,21.0,81,0.00,,,-99.99,Weather View 32 v60,2013-03-24 16:30:00,
2013-03-24 11:45:00,26.0,20.7,30.24,NE,45,6.0,21.0,80,0.00,,,-99.99,Weather View 32 v60,2013-03-24 16:45:00,
2013-03-24 12:00:00,25.0,20.0,30.24,North,360,18.0,20.0,81,0.00,,,-99.99,Weather View 32 v60,2013-03-24 17:00:00,
2013-03-24 12:15:00,25.0,20.0,30.24,NNE,22,2.0,20.0,81,0.00,,,-99.99,Weather View 32 v60,2013-03-24 17:15:00,
2013-03-24 12:30:00,26.0,19.8,30.24,NNE,22,6.0,20.0,77,0.00,,,-99.99,Weather View 32 v60,2013-03-24 17:30:00,
2013-03-24 12:45:00,26.0,20.4,30.24,NNW,337,5.0,20.0,79,0.00,,,-99.99,Weather View 32 v60,2013-03-24 17:45:00,
2013-03-24 13:00:00,26.0,20.1,30.24,NNW,337,6.0,20.0,78,0.00,,,-99.99,Weather View 32 v60,2013-03-24 18:00:00,
2013-03-24 13:15:00,25.0,19.4,30.24,NNW,337,19.0,20.0,79,0.00,,,-99.99,Weather View 32 v60,2013-03-24 18:15:00,
2013-03-24 13:30:00,26.0,21.0,30.24,NE,45,6.0,20.0,81,0.00,,,-99.99,Weather View 32 v60,2013-03-24 18:30:00,
2013-03-24 13:45:00,25.0,19.4,30.23,NNW,337,9.0,20.0,79,0.00,,,-99.99,Weather View 32 v60,2013-03-24 18:45:00,
2013-03-24 14:00:00,25.0,19.7,30.24,North,360,0.0,20.0,80,0.00,,,-99.99,Weather View 32 v60,2013-03-24 19:00:00,
2013-03-24 14:15:00,25.0,19.4,30.23,North,360,4.0,20.0,79,0.00,,,-99.99,Weather View 32 v60,2013-03-24 19:15:00,
2013-03-24 14:30:00,25.0,19.1,30.23,NNW,337,13.0,22.0,78,0.00,,,-99.99,Weather View 32 v60,2013-03-24 19:30:00,
2013-03-24 14:45:00,27.0,20.8,30.22,NNW,337,6.0,22.0,77,0.00,,,-99.99,Weather View 32 v60,2013-03-24 19:45:00,
2013-03-24 15:00:00,26.0,20.1,30.22,WNW,292,0.0,22.0,78,0.00,,,-99.99,Weather View 32 v60,2013-03-24 20:00:00,
2013-03-24 15:15:00,26.0,19.5,30.22,NW,315,16.0,22.0,76,0.00,,,-99.99,Weather View 32 v60,2013-03-24 20:15:00,
2013-03-24 15:30:00,26.0,19.8,30.21,WNW,292,7.0,19.0,77,0.00,,,-99.99,Weather View 32 v60,2013-03-24 20:30:00,
2013-03-24 15:45:00,26.0,19.5,30.22,NNW,337,11.0,29.0,76,0.00,,,-99.99,Weather View 32 v60,2013-03-24 20:45:00,
2013-03-24 15:50:00,26.0,19.5,30.22,NNW,337,11.0,29.0,76,0.00,,,-99.99,Weather View 32 v60,2013-03-24 20:50:00,
2013-03-24 16:00:00,27.0,19.5,30.21,NNW,337,1.0,29.0,73,0.00,,,-99.99,Weather View 32 v60,2013-03-24 21:00:00,
2013-03-24 16:15:00,27.0,20.1,30.21,NW,315,6.0,29.0,75,0.00,,,-99.99,Weather View 32 v60,2013-03-24 21:15:00,
2013-03-24 16:30:00,27.0,20.1,30.21,NNW,337,10.0,29.0,75,0.00,,,-99.99,Weather View 32 v60,2013-03-24 21:30:00,
2013-03-24 16:45:00,27.0,20.1,30.20,NW,315,6.0,22.0,75,0.00,,,-99.99,Weather View 32 v60,2013-03-24 21:45:00,
2013-03-24 16:51:00,27.0,20.1,30.20,NW,315,6.0,22.0,75,0.00,,,-99.99,Weather View 32 v60,2013-03-24 21:51:00,
2013-03-24 17:00:00,27.0,20.1,30.21,NNW,337,0.0,20.0,75,0.00,,,-99.99,Weather View 32 v60,2013-03-24 22:00:00,
2013-03-24 17:15:00,28.0,21.1,30.20,NW,315,4.0,20.0,75,0.00,,,-99.99,Weather View 32 v60,2013-03-24 22:15:00,
2013-03-24 17:30:00,27.0,20.4,30.22,NW,315,12.0,20.0,76,0.00,,,-99.99,Weather View 32 v60,2013-03-24 22:30:00,
2013-03-24 17:45:00,28.0,21.4,30.21,NNW,337,3.0,20.0,76,0.00,,,-99.99,Weather View 32 v60,2013-03-24 22:45:00,
2013-03-24 17:51:00,28.0,21.4,30.21,NNW,337,3.0,20.0,76,0.00,,,-99.99,Weather View 32 v60,2013-03-24 22:51:00,
2013-03-24 18:00:00,27.0,21.4,30.20,NW,315,9.0,21.0,79,0.00,,,-99.99,Weather View 32 v60,2013-03-24 23:00:00,
2013-03-24 18:15:00,27.0,22.5,30.22,NW,315,6.0,21.0,83,0.00,,,-99.99,Weather View 32 v60,2013-03-24 23:15:00,
2013-03-24 18:30:00,27.0,23.1,30.22,NNW,337,5.0,22.0,85,0.00,,,-99.99,Weather View 32 v60,2013-03-24 23:30:00,
2013-03-24 18:45:00,27.0,23.4,30.22,NW,315,12.0,22.0,86,0.00,,,-99.99,Weather View 32 v60,2013-03-24 23:45:00,
2013-03-24 18:52:00,27.0,23.4,30.22,NW,315,12.0,22.0,86,0.00,,,-99.99,Weather View 32 v60,2013-03-24 23:52:00,
2013-03-24 19:00:00,27.0,23.1,30.22,NNW,337,1.0,22.0,85,0.00,,,-99.99,Weather View 32 v60,2013-03-25 00:00:00,
2013-03-24 19:15:00,27.0,23.1,30.22,NNW,337,4.0,22.0,85,0.00,,,-99.99,Weather View 32 v60,2013-03-25 00:15:00,
2013-03-24 19:30:00,27.0,23.1,30.22,NNW,337,9.0,22.0,85,0.00,,,-99.99,Weather View 32 v60,2013-03-25 00:30:00,
2013-03-24 19:45:00,27.0,23.6,30.23,NNW,337,12.0,22.0,87,0.00,,,-99.99,Weather View 32 v60,2013-03-25 00:45:00,
2013-03-24 19:52:00,27.0,23.6,30.23,NNW,337,12.0,22.0,87,0.00,,,-99.99,Weather View 32 v60,2013-03-25 00:52:00,
2013-03-24 20:00:00,26.0,22.9,30.23,NNW,337,8.0,19.0,88,0.00,,,-99.99,Weather View 32 v60,2013-03-25 01:00:00,
2013-03-24 20:15:00,26.0,23.5,30.24,North,360,0.0,19.0,90,0.00,,,-99.99,Weather View 32 v60,2013-03-25 01:15:00,
2013-03-24 20:30:00,25.0,22.7,30.24,NNE,22,7.0,19.0,91,0.00,,,-99.99,Weather View 32 v60,2013-03-25 01:30:00,
2013-03-24 20:45:00,25.0,22.7,30.24,NNW,337,9.0,19.0,91,0.00,,,-99.99,Weather View 32 v60,2013-03-25 01:45:00,
2013-03-24 20:53:00,25.0,22.7,30.24,NNW,337,9.0,19.0,91,0.00,,,-99.99,Weather View 32 v60,2013-03-25 01:53:00,
2013-03-24 21:00:00,25.0,22.5,30.24,NW,315,10.0,19.0,90,0.00,,,-99.99,Weather View 32 v60,2013-03-25 02:00:00,
2013-03-24 21:15:00,25.0,22.5,30.24,WNW,292,3.0,19.0,90,0.00,,,-99.99,Weather View 32 v60,2013-03-25 02:15:00,
2013-03-24 21:30:00,25.0,22.2,30.24,WNW,292,3.0,19.0,89,0.00,,,-99.99,Weather View 32 v60,2013-03-25 02:30:00,
2013-03-24 21:45:00,25.0,22.2,30.25,NNW,337,2.0,19.0,89,0.00,,,-99.99,Weather View 32 v60,2013-03-25 02:45:00,
2013-03-24 21:53:00,25.0,22.2,30.25,NNW,337,2.0,19.0,89,0.00,,,-99.99,Weather View 32 v60,2013-03-25 02:53:00,
2013-03-24 22:00:00,25.0,22.2,30.25,North,360,0.0,17.0,89,0.00,,,-99.99,Weather View 32 v60,2013-03-25 03:00:00,
2013-03-24 22:15:00,25.0,22.0,30.26,NNW,337,0.0,16.0,88,0.00,,,-99.99,Weather View 32 v60,2013-03-25 03:15:00,
2013-03-24 22:30:00,26.0,22.9,30.25,NNW,337,0.0,16.0,88,0.00,,,-99.99,Weather View 32 v60,2013-03-25 03:30:00,
2013-03-24 22:45:00,26.0,22.9,30.25,NNW,337,6.0,16.0,88,0.00,,,-99.99,Weather View 32 v60,2013-03-25 03:45:00,
2013-03-24 22:54:00,26.0,22.9,30.25,NNW,337,6.0,16.0,88,0.00,,,-99.99,Weather View 32 v60,2013-03-25 03:54:00,
2013-03-24 23:00:00,26.0,22.9,30.26,NNW,337,3.0,16.0,88,0.00,,,-99.99,Weather View 32 v60,2013-03-25 04:00:00,
2013-03-24 23:15:00,26.0,22.9,30.26,NNE,22,0.0,14.0,88,0.00,,,-99.99,Weather View 32 v60,2013-03-25 04:15:00,
2013-03-24 23:30:00,26.0,23.5,30.26,NNW,337,11.0,19.0,90,0.00,,,-99.99,Weather View 32 v60,2013-03-25 04:30:00,
2013-03-24 23:45:00,26.0,23.5,30.26,NNE,22,0.0,19.0,90,0.00,,,-99.99,Weather View 32 v60,2013-03-25 04:45:00,
2013-03-24 23:55:00,26.0,23.5,30.26,NNE,22,0.0,19.0,90,0.00,,,-99.99,Weather View 32 v60,2013-03-25 04:55:00,